Year,Month,Day,Hour,Minute,Value (Times are PST for temperature in C)
2014,10,31,00,00,7.40
2014,10,31,00,01,7.40
2014,10,31,00,02,7.40
2014,10,31,00,03,7.40
2014,10,31,00,04,7.40
2014,10,31,00,05,7.40
2014,10,31,00,06,7.40
2014,10,31,00,07,7.40
2014,10,31,00,08,7.40
2014,10,31,00,09,7.40
2014,10,31,00,10,7.40
2014,10,31,00,11,7.40
2014,10,31,00,12,7.40
2014,10,31,00,13,7.40
2014,10,31,00,14,7.40
2014,10,31,00,15,7.40
2014,10,31,00,16,7.40
2014,10,31,00,17,7.40
2014,10,31,00,18,7.40
2014,10,31,00,19,7.40
2014,10,31,00,20,7.40
2014,10,31,00,21,7.40
2014,10,31,00,22,7.30
2014,10,31,00,23,7.30
2014,10,31,00,24,7.30
2014,10,31,00,25,7.30
2014,10,31,00,26,7.30
2014,10,31,00,27,7.30
2014,10,31,00,28,7.30
2014,10,31,00,29,7.30
2014,10,31,00,30,7.30
2014,10,31,00,31,7.30
2014,10,31,00,32,7.30
2014,10,31,00,33,7.20
2014,10,31,00,34,7.20
2014,10,31,00,35,7.20
2014,10,31,00,36,7.20
2014,10,31,00,37,7.20
2014,10,31,00,38,7.20
2014,10,31,00,39,7.20
2014,10,31,00,40,7.20
2014,10,31,00,41,7.20
2014,10,31,00,42,7.20
2014,10,31,00,43,7.20
2014,10,31,00,44,7.20
2014,10,31,00,45,7.20
2014,10,31,00,46,7.20
2014,10,31,00,47,7.10
2014,10,31,00,48,7.10
2014,10,31,00,49,7.10
2014,10,31,00,50,7.10
2014,10,31,00,51,7.10
2014,10,31,00,52,7.00
2014,10,31,00,53,7.00
2014,10,31,00,54,7.00
2014,10,31,00,55,7.00
2014,10,31,00,56,7.00
2014,10,31,00,57,6.90
2014,10,31,00,58,6.90
2014,10,31,00,59,6.90
2014,10,31,01,00,6.90
2014,10,31,01,01,6.90
2014,10,31,01,02,6.90
2014,10,31,01,03,6.90
2014,10,31,01,04,6.90
2014,10,31,01,05,6.90
2014,10,31,01,06,6.90
2014,10,31,01,07,6.90
2014,10,31,01,08,6.90
2014,10,31,01,09,6.90
2014,10,31,01,10,6.90
2014,10,31,01,11,6.90
2014,10,31,01,12,6.80
2014,10,31,01,13,6.80
2014,10,31,01,14,6.80
2014,10,31,01,15,6.80
2014,10,31,01,16,6.80
2014,10,31,01,17,6.80
2014,10,31,01,18,6.80
2014,10,31,01,19,6.80
2014,10,31,01,20,6.80
2014,10,31,01,21,6.80
2014,10,31,01,22,6.80
2014,10,31,01,23,6.80
2014,10,31,01,24,6.80
2014,10,31,01,25,6.80
2014,10,31,01,26,6.70
2014,10,31,01,27,6.70
2014,10,31,01,28,6.70
2014,10,31,01,29,6.70
2014,10,31,01,30,6.70
2014,10,31,01,31,6.60
2014,10,31,01,32,6.60
2014,10,31,01,33,6.60
2014,10,31,01,34,6.60
2014,10,31,01,35,6.60
2014,10,31,01,36,6.50
2014,10,31,01,37,6.50
2014,10,31,01,38,6.50
2014,10,31,01,39,6.50
2014,10,31,01,40,6.40
2014,10,31,01,41,6.40
2014,10,31,01,42,6.40
2014,10,31,01,43,6.30
2014,10,31,01,44,6.30
2014,10,31,01,45,6.30
2014,10,31,01,46,6.30
2014,10,31,01,47,6.30
2014,10,31,01,48,6.30
2014,10,31,01,49,6.20
2014,10,31,01,50,6.20
2014,10,31,01,51,6.20
2014,10,31,01,52,6.20
2014,10,31,01,53,6.20
2014,10,31,01,54,6.20
2014,10,31,01,55,6.20
2014,10,31,01,56,6.20
2014,10,31,01,57,6.20
2014,10,31,01,58,6.20
2014,10,31,01,59,6.20
2014,10,31,02,00,6.20
2014,10,31,02,01,6.10
2014,10,31,02,02,6.10
2014,10,31,02,03,6.10
2014,10,31,02,04,6.10
2014,10,31,02,05,6.10
2014,10,31,02,06,6.10
2014,10,31,02,07,6.10
2014,10,31,02,08,6.10
2014,10,31,02,09,6.10
2014,10,31,02,10,6.10
2014,10,31,02,11,6.10
2014,10,31,02,12,6.10
2014,10,31,02,13,6.10
2014,10,31,02,14,6.10
2014,10,31,02,15,6.10
2014,10,31,02,16,6.10
2014,10,31,02,17,6.10
2014,10,31,02,18,6.10
2014,10,31,02,19,6.10
2014,10,31,02,20,6.10
2014,10,31,02,21,6.10
2014,10,31,02,22,6.10
2014,10,31,02,23,6.10
2014,10,31,02,24,6.10
2014,10,31,02,25,6.10
2014,10,31,02,26,6.10
2014,10,31,02,27,6.10
2014,10,31,02,28,6.10
2014,10,31,02,29,6.10
2014,10,31,02,30,6.10
2014,10,31,02,31,6.10
2014,10,31,02,32,6.10
2014,10,31,02,33,6.10
2014,10,31,02,34,6.10
2014,10,31,02,35,6.10
2014,10,31,02,36,6.20
2014,10,31,02,37,6.20
2014,10,31,02,38,6.20
2014,10,31,02,39,6.20
2014,10,31,02,40,6.20
2014,10,31,02,41,6.20
2014,10,31,02,42,6.20
2014,10,31,02,43,6.30
2014,10,31,02,44,6.30
2014,10,31,02,45,6.30
2014,10,31,02,46,6.30
2014,10,31,02,47,6.30
2014,10,31,02,48,6.30
2014,10,31,02,49,6.30
2014,10,31,02,50,6.30
2014,10,31,02,51,6.30
2014,10,31,02,52,6.30
2014,10,31,02,53,6.30
2014,10,31,02,54,6.30
2014,10,31,02,55,6.30
2014,10,31,02,56,6.30
2014,10,31,02,57,6.30
2014,10,31,02,58,6.30
2014,10,31,02,59,6.30
2014,10,31,03,00,6.30
2014,10,31,03,01,6.30
2014,10,31,03,02,6.30
2014,10,31,03,03,6.30
2014,10,31,03,04,6.30
2014,10,31,03,05,6.30
2014,10,31,03,06,6.30
2014,10,31,03,07,6.30
2014,10,31,03,08,6.30
2014,10,31,03,09,6.30
2014,10,31,03,10,6.30
2014,10,31,03,11,6.30
2014,10,31,03,12,6.30
2014,10,31,03,13,6.30
2014,10,31,03,14,6.30
2014,10,31,03,15,6.30
2014,10,31,03,16,6.30
2014,10,31,03,17,6.30
2014,10,31,03,18,6.30
2014,10,31,03,19,6.30
2014,10,31,03,20,6.30
2014,10,31,03,21,6.30
2014,10,31,03,22,6.30
2014,10,31,03,23,6.30
2014,10,31,03,24,6.30
2014,10,31,03,25,6.30
2014,10,31,03,26,6.30
2014,10,31,03,27,6.30
2014,10,31,03,28,6.30
2014,10,31,03,29,6.30
2014,10,31,03,30,6.30
2014,10,31,03,31,6.30
2014,10,31,03,32,6.30
2014,10,31,03,33,6.30
2014,10,31,03,34,6.30
2014,10,31,03,35,6.30
2014,10,31,03,36,6.30
2014,10,31,03,37,6.40
2014,10,31,03,38,6.40
2014,10,31,03,39,6.40
2014,10,31,03,40,6.40
2014,10,31,03,41,6.40
2014,10,31,03,42,6.40
2014,10,31,03,43,6.40
2014,10,31,03,44,6.40
2014,10,31,03,45,6.40
2014,10,31,03,46,6.40
2014,10,31,03,47,6.40
2014,10,31,03,48,6.40
2014,10,31,03,49,6.40
2014,10,31,03,50,6.40
2014,10,31,03,51,6.40
2014,10,31,03,52,6.40
2014,10,31,03,53,6.40
2014,10,31,03,54,6.40
2014,10,31,03,55,6.40
2014,10,31,03,56,6.40
2014,10,31,03,57,6.40
2014,10,31,03,58,6.30
2014,10,31,03,59,6.30
2014,10,31,04,00,6.30
2014,10,31,04,01,6.30
2014,10,31,04,02,6.30
2014,10,31,04,03,6.30
2014,10,31,04,04,6.30
2014,10,31,04,05,6.30
2014,10,31,04,06,6.40
2014,10,31,04,07,6.40
2014,10,31,04,08,6.40
2014,10,31,04,09,6.40
2014,10,31,04,10,6.40
2014,10,31,04,11,6.40
2014,10,31,04,12,6.40
2014,10,31,04,13,6.40
2014,10,31,04,14,6.40
2014,10,31,04,15,6.40
2014,10,31,04,16,6.40
2014,10,31,04,17,6.40
2014,10,31,04,18,6.40
2014,10,31,04,19,6.40
2014,10,31,04,20,6.40
2014,10,31,04,21,6.40
2014,10,31,04,22,6.40
2014,10,31,04,23,6.40
2014,10,31,04,24,6.40
2014,10,31,04,25,6.40
2014,10,31,04,26,6.40
2014,10,31,04,27,6.40
2014,10,31,04,28,6.40
2014,10,31,04,29,6.40
2014,10,31,04,30,6.40
2014,10,31,04,31,6.40
2014,10,31,04,32,6.40
2014,10,31,04,33,6.40
2014,10,31,04,34,6.40
2014,10,31,04,35,6.40
2014,10,31,04,36,6.40
2014,10,31,04,37,6.40
2014,10,31,04,38,6.40
2014,10,31,04,39,6.40
2014,10,31,04,40,6.30
2014,10,31,04,41,6.30
2014,10,31,04,42,6.30
2014,10,31,04,43,6.30
2014,10,31,04,44,6.30
2014,10,31,04,45,6.30
2014,10,31,04,46,6.30
2014,10,31,04,47,6.30
2014,10,31,04,48,6.20
2014,10,31,04,49,6.20
2014,10,31,04,50,6.20
2014,10,31,04,51,6.20
2014,10,31,04,52,6.20
2014,10,31,04,53,6.20
2014,10,31,04,54,6.20
2014,10,31,04,55,6.20
2014,10,31,04,56,6.20
2014,10,31,04,57,6.20
2014,10,31,04,58,6.20
2014,10,31,04,59,6.20
2014,10,31,05,00,6.10
2014,10,31,05,01,6.10
2014,10,31,05,02,6.10
2014,10,31,05,03,6.10
2014,10,31,05,04,6.10
2014,10,31,05,05,6.10
2014,10,31,05,06,6.10
2014,10,31,05,07,6.10
2014,10,31,05,08,6.10
2014,10,31,05,09,6.10
2014,10,31,05,10,6.10
2014,10,31,05,11,6.10
2014,10,31,05,12,6.10
2014,10,31,05,13,6.10
2014,10,31,05,14,6.10
2014,10,31,05,15,6.10
2014,10,31,05,16,6.10
2014,10,31,05,17,6.10
2014,10,31,05,18,6.10
2014,10,31,05,19,6.00
2014,10,31,05,20,6.00
2014,10,31,05,21,6.00
2014,10,31,05,22,6.00
2014,10,31,05,23,6.00
2014,10,31,05,24,6.00
2014,10,31,05,25,6.00
2014,10,31,05,26,6.00
2014,10,31,05,27,6.00
2014,10,31,05,28,6.00
2014,10,31,05,29,6.00
2014,10,31,05,30,6.00
2014,10,31,05,31,6.00
2014,10,31,05,32,5.90
2014,10,31,05,33,6.00
2014,10,31,05,34,6.00
2014,10,31,05,35,6.00
2014,10,31,05,36,6.00
2014,10,31,05,37,6.00
2014,10,31,05,38,6.00
2014,10,31,05,39,6.00
2014,10,31,05,40,6.00
2014,10,31,05,41,6.00
2014,10,31,05,42,6.00
2014,10,31,05,43,6.00
2014,10,31,05,44,6.00
2014,10,31,05,45,6.00
2014,10,31,05,46,6.00
2014,10,31,05,47,6.00
2014,10,31,05,48,6.10
2014,10,31,05,49,6.10
2014,10,31,05,50,6.00
2014,10,31,05,51,6.00
2014,10,31,05,52,6.00
2014,10,31,05,53,6.00
2014,10,31,05,54,6.10
2014,10,31,05,55,6.00
2014,10,31,05,56,6.00
2014,10,31,05,57,6.00
2014,10,31,05,58,6.00
2014,10,31,05,59,6.00
2014,10,31,06,00,6.00
2014,10,31,06,01,5.90
2014,10,31,06,02,5.90
2014,10,31,06,03,5.90
2014,10,31,06,04,5.90
2014,10,31,06,05,5.90
2014,10,31,06,06,5.90
2014,10,31,06,07,5.90
2014,10,31,06,08,5.90
2014,10,31,06,09,5.90
2014,10,31,06,10,5.90
2014,10,31,06,11,5.90
2014,10,31,06,12,5.90
2014,10,31,06,13,5.90
2014,10,31,06,14,5.90
2014,10,31,06,15,5.90
2014,10,31,06,16,5.90
2014,10,31,06,17,5.90
2014,10,31,06,18,5.90
2014,10,31,06,19,5.80
2014,10,31,06,20,5.90
2014,10,31,06,21,5.90
2014,10,31,06,22,5.90
2014,10,31,06,23,5.90
2014,10,31,06,24,5.80
2014,10,31,06,25,5.90
2014,10,31,06,26,5.90
2014,10,31,06,27,5.90
2014,10,31,06,28,5.90
2014,10,31,06,29,5.90
2014,10,31,06,30,5.80
2014,10,31,06,31,5.80
2014,10,31,06,32,5.80
2014,10,31,06,33,5.80
2014,10,31,06,34,5.80
2014,10,31,06,35,5.80
2014,10,31,06,36,5.80
2014,10,31,06,37,5.80
2014,10,31,06,38,5.80
2014,10,31,06,39,5.80
2014,10,31,06,40,5.80
2014,10,31,06,41,5.80
2014,10,31,06,42,5.80
2014,10,31,06,43,5.80
2014,10,31,06,44,5.80
2014,10,31,06,45,5.80
2014,10,31,06,46,5.80
2014,10,31,06,47,5.80
2014,10,31,06,48,5.80
2014,10,31,06,49,5.80
2014,10,31,06,50,5.80
2014,10,31,06,51,5.80
2014,10,31,06,52,5.80
2014,10,31,06,53,5.80
2014,10,31,06,54,5.80
2014,10,31,06,55,5.80
2014,10,31,06,56,5.80
2014,10,31,06,57,5.80
2014,10,31,06,58,5.70
2014,10,31,06,59,5.70
2014,10,31,07,00,5.70
2014,10,31,07,01,5.70
2014,10,31,07,02,5.70
2014,10,31,07,03,5.70
2014,10,31,07,04,5.70
2014,10,31,07,05,5.70
2014,10,31,07,06,5.70
2014,10,31,07,07,5.70
2014,10,31,07,08,5.70
2014,10,31,07,09,5.70
2014,10,31,07,10,5.70
2014,10,31,07,11,5.70
2014,10,31,07,12,5.70
2014,10,31,07,13,5.70
2014,10,31,07,14,5.70
2014,10,31,07,15,5.70
2014,10,31,07,16,5.70
2014,10,31,07,17,5.70
2014,10,31,07,18,5.70
2014,10,31,07,19,5.70
2014,10,31,07,20,5.70
2014,10,31,07,21,5.70
2014,10,31,07,22,5.70
2014,10,31,07,23,5.70
2014,10,31,07,24,5.70
2014,10,31,07,25,5.70
2014,10,31,07,26,5.70
2014,10,31,07,27,5.70
2014,10,31,07,28,5.70
2014,10,31,07,29,5.70
2014,10,31,07,30,5.70
2014,10,31,07,31,5.70
2014,10,31,07,32,5.70
2014,10,31,07,33,5.70
2014,10,31,07,34,5.70
2014,10,31,07,35,5.70
2014,10,31,07,36,5.70
2014,10,31,07,37,5.70
2014,10,31,07,38,5.70
2014,10,31,07,39,5.70
2014,10,31,07,40,5.70
2014,10,31,07,41,5.70
2014,10,31,07,42,5.70
2014,10,31,07,43,5.70
2014,10,31,07,44,5.70
2014,10,31,07,45,5.70
2014,10,31,07,46,5.70
2014,10,31,07,47,5.70
2014,10,31,07,48,5.70
2014,10,31,07,49,5.70
2014,10,31,07,50,5.70
2014,10,31,07,51,5.70
2014,10,31,07,52,5.70
2014,10,31,07,53,5.70
2014,10,31,07,54,5.70
2014,10,31,07,55,5.70
2014,10,31,07,56,5.60
2014,10,31,07,57,5.60
2014,10,31,07,58,5.60
2014,10,31,07,59,5.60
2014,10,31,08,00,5.60
2014,10,31,08,01,5.60
2014,10,31,08,02,5.60
2014,10,31,08,03,5.60
2014,10,31,08,04,5.60
2014,10,31,08,05,5.60
2014,10,31,08,06,5.60
2014,10,31,08,07,5.60
2014,10,31,08,08,5.60
2014,10,31,08,09,5.60
2014,10,31,08,10,5.60
2014,10,31,08,11,5.60
2014,10,31,08,12,5.60
2014,10,31,08,13,5.60
2014,10,31,08,14,5.60
2014,10,31,08,15,5.60
2014,10,31,08,16,5.60
2014,10,31,08,17,5.60
2014,10,31,08,18,5.60
2014,10,31,08,19,5.60
2014,10,31,08,20,5.60
2014,10,31,08,21,5.60
2014,10,31,08,22,5.60
2014,10,31,08,23,5.60
2014,10,31,08,24,5.60
2014,10,31,08,25,5.60
2014,10,31,08,26,5.60
2014,10,31,08,27,5.60
2014,10,31,08,28,5.60
2014,10,31,08,29,5.60
2014,10,31,08,30,5.60
2014,10,31,08,31,5.60
2014,10,31,08,32,5.60
2014,10,31,08,33,5.60
2014,10,31,08,34,5.60
2014,10,31,08,35,5.60
2014,10,31,08,36,5.60
2014,10,31,08,37,5.60
2014,10,31,08,38,5.60
2014,10,31,08,39,5.60
2014,10,31,08,40,5.60
2014,10,31,08,41,5.60
2014,10,31,08,42,5.60
2014,10,31,08,43,5.60
2014,10,31,08,44,5.60
2014,10,31,08,45,5.60
2014,10,31,08,46,5.60
2014,10,31,08,47,5.60
2014,10,31,08,48,5.60
2014,10,31,08,49,5.50
2014,10,31,08,50,5.50
2014,10,31,08,51,5.50
2014,10,31,08,52,5.50
2014,10,31,08,53,5.50
2014,10,31,08,54,5.50
2014,10,31,08,55,5.50
2014,10,31,08,56,5.40
2014,10,31,08,57,5.50
2014,10,31,08,58,5.40
2014,10,31,08,59,5.50
2014,10,31,09,00,5.50
2014,10,31,09,01,5.50
2014,10,31,09,02,5.50
2014,10,31,09,03,5.50
2014,10,31,09,04,5.50
2014,10,31,09,05,5.40
2014,10,31,09,06,5.40
2014,10,31,09,07,5.40
2014,10,31,09,08,5.40
2014,10,31,09,09,5.40
2014,10,31,09,10,5.40
2014,10,31,09,11,5.40
2014,10,31,09,12,5.40
2014,10,31,09,13,5.40
2014,10,31,09,14,5.40
2014,10,31,09,15,5.40
2014,10,31,09,16,5.50
2014,10,31,09,17,5.50
2014,10,31,09,18,5.50
2014,10,31,09,19,5.40
2014,10,31,09,20,5.40
2014,10,31,09,21,5.50
2014,10,31,09,22,5.40
2014,10,31,09,23,5.50
2014,10,31,09,24,5.50
2014,10,31,09,25,5.50
2014,10,31,09,26,5.50
2014,10,31,09,27,5.50
2014,10,31,09,28,5.50
2014,10,31,09,29,5.50
2014,10,31,09,30,5.50
2014,10,31,09,31,5.50
2014,10,31,09,32,5.50
2014,10,31,09,33,5.50
2014,10,31,09,34,5.50
2014,10,31,09,35,5.50
2014,10,31,09,36,5.50
2014,10,31,09,37,5.50
2014,10,31,09,38,5.50
2014,10,31,09,39,5.50
2014,10,31,09,40,5.50
2014,10,31,09,41,5.50
2014,10,31,09,42,5.60
2014,10,31,09,43,5.60
2014,10,31,09,44,5.60
2014,10,31,09,45,5.60
2014,10,31,09,46,5.60
2014,10,31,09,47,5.60
2014,10,31,09,48,5.60
2014,10,31,09,49,5.60
2014,10,31,09,50,5.60
2014,10,31,09,51,5.70
2014,10,31,09,52,5.70
2014,10,31,09,53,5.70
2014,10,31,09,54,5.70
2014,10,31,09,55,5.70
2014,10,31,09,56,5.70
2014,10,31,09,57,5.70
2014,10,31,09,58,5.80
2014,10,31,09,59,5.80
2014,10,31,10,00,5.80
2014,10,31,10,01,5.80
2014,10,31,10,02,5.80
2014,10,31,10,03,5.80
2014,10,31,10,04,5.80
2014,10,31,10,05,5.80
2014,10,31,10,06,5.80
2014,10,31,10,07,5.90
2014,10,31,10,08,5.90
2014,10,31,10,09,5.90
2014,10,31,10,10,5.90
2014,10,31,10,11,5.90
2014,10,31,10,12,5.90
2014,10,31,10,13,5.90
2014,10,31,10,14,5.90
2014,10,31,10,15,5.90
2014,10,31,10,16,5.90
2014,10,31,10,17,5.90
2014,10,31,10,18,5.90
2014,10,31,10,19,5.90
2014,10,31,10,20,5.90
2014,10,31,10,21,5.90
2014,10,31,10,22,5.90
2014,10,31,10,23,5.90
2014,10,31,10,24,5.90
2014,10,31,10,25,5.90
2014,10,31,10,26,5.90
2014,10,31,10,27,5.90
2014,10,31,10,28,5.90
2014,10,31,10,29,5.90
2014,10,31,10,30,5.90
2014,10,31,10,31,5.90
2014,10,31,10,32,5.90
2014,10,31,10,33,5.90
2014,10,31,10,34,5.90
2014,10,31,10,35,5.90
2014,10,31,10,36,5.90
2014,10,31,10,37,5.90
2014,10,31,10,38,5.90
2014,10,31,10,39,5.90
2014,10,31,10,40,5.90
2014,10,31,10,41,6.00
2014,10,31,10,42,6.00
2014,10,31,10,43,6.00
2014,10,31,10,44,6.00
2014,10,31,10,45,6.00
2014,10,31,10,46,6.00
2014,10,31,10,47,6.00
2014,10,31,10,48,6.00
2014,10,31,10,49,6.00
2014,10,31,10,50,6.10
2014,10,31,10,51,6.10
2014,10,31,10,52,6.10
2014,10,31,10,53,6.10
2014,10,31,10,54,6.10
2014,10,31,10,55,6.10
2014,10,31,10,56,6.10
2014,10,31,10,57,6.20
2014,10,31,10,58,6.20
2014,10,31,10,59,6.20
2014,10,31,11,00,6.20
2014,10,31,11,01,6.20
2014,10,31,11,02,6.20
2014,10,31,11,03,6.20
2014,10,31,11,04,6.20
2014,10,31,11,05,6.20
2014,10,31,11,06,6.20
2014,10,31,11,07,6.20
2014,10,31,11,08,6.30
2014,10,31,11,09,6.30
2014,10,31,11,10,6.30
2014,10,31,11,11,6.30
2014,10,31,11,12,6.30
2014,10,31,11,13,6.30
2014,10,31,11,14,6.30
2014,10,31,11,15,6.40
2014,10,31,11,16,6.40
2014,10,31,11,17,6.40
2014,10,31,11,18,6.50
2014,10,31,11,19,6.50
2014,10,31,11,20,6.50
2014,10,31,11,21,6.50
2014,10,31,11,22,6.50
2014,10,31,11,23,6.50
2014,10,31,11,24,6.60
2014,10,31,11,25,6.60
2014,10,31,11,26,6.60
2014,10,31,11,27,6.60
2014,10,31,11,28,6.60
2014,10,31,11,29,6.60
2014,10,31,11,30,6.60
2014,10,31,11,31,6.60
2014,10,31,11,32,6.60
2014,10,31,11,33,6.70
2014,10,31,11,34,6.70
2014,10,31,11,35,6.70
2014,10,31,11,36,6.70
2014,10,31,11,37,6.70
2014,10,31,11,38,6.80
2014,10,31,11,39,6.80
2014,10,31,11,40,6.80
2014,10,31,11,41,6.80
2014,10,31,11,42,6.80
2014,10,31,11,43,6.90
2014,10,31,11,44,6.90
2014,10,31,11,45,6.90
2014,10,31,11,46,6.90
2014,10,31,11,47,6.90
2014,10,31,11,48,7.00
2014,10,31,11,49,7.00
2014,10,31,11,50,7.10
2014,10,31,11,51,7.10
2014,10,31,11,52,7.20
2014,10,31,11,53,7.20
2014,10,31,11,54,7.30
2014,10,31,11,55,7.30
2014,10,31,11,56,7.40
2014,10,31,11,57,7.40
2014,10,31,11,58,7.50
2014,10,31,11,59,7.50
2014,10,31,12,00,7.60
2014,10,31,12,01,7.60
2014,10,31,12,02,7.60
2014,10,31,12,03,7.70
2014,10,31,12,04,7.70
2014,10,31,12,05,7.70
2014,10,31,12,06,7.70
2014,10,31,12,07,7.80
2014,10,31,12,08,7.80
2014,10,31,12,09,7.80
2014,10,31,12,10,7.80
2014,10,31,12,11,7.90
2014,10,31,12,12,7.90
2014,10,31,12,13,7.90
2014,10,31,12,14,8.00
2014,10,31,12,15,8.00
2014,10,31,12,16,8.10
2014,10,31,12,17,8.20
2014,10,31,12,18,8.20
2014,10,31,12,19,8.30
2014,10,31,12,20,8.30
2014,10,31,12,21,8.40
2014,10,31,12,22,8.40
2014,10,31,12,23,8.50
2014,10,31,12,24,8.50
2014,10,31,12,25,8.60
2014,10,31,12,26,8.60
2014,10,31,12,27,8.70
2014,10,31,12,28,8.70
2014,10,31,12,29,8.70
2014,10,31,12,30,8.70
2014,10,31,12,31,8.70
2014,10,31,12,32,8.70
2014,10,31,12,33,8.70
2014,10,31,12,34,8.70
2014,10,31,12,35,8.70
2014,10,31,12,36,8.70
2014,10,31,12,37,8.70
2014,10,31,12,38,8.70
2014,10,31,12,39,8.70
2014,10,31,12,40,8.70
2014,10,31,12,41,8.70
2014,10,31,12,42,8.70
2014,10,31,12,43,8.60
2014,10,31,12,44,8.60
2014,10,31,12,45,8.60
2014,10,31,12,46,8.60
2014,10,31,12,47,8.60
2014,10,31,12,48,8.60
2014,10,31,12,49,8.60
2014,10,31,12,50,8.50
2014,10,31,12,51,8.50
2014,10,31,12,52,8.50
2014,10,31,12,53,8.40
2014,10,31,12,54,8.40
2014,10,31,12,55,8.40
2014,10,31,12,56,8.40
2014,10,31,12,57,8.40
2014,10,31,12,58,8.30
2014,10,31,12,59,8.30
2014,10,31,13,00,8.30
2014,10,31,13,01,8.30
2014,10,31,13,02,8.40
2014,10,31,13,03,8.40
2014,10,31,13,04,8.40
2014,10,31,13,05,8.40
2014,10,31,13,06,8.50
2014,10,31,13,07,8.50
2014,10,31,13,08,8.60
2014,10,31,13,09,8.60
2014,10,31,13,10,8.60
2014,10,31,13,11,8.70
2014,10,31,13,12,8.70
2014,10,31,13,13,8.80
2014,10,31,13,14,8.90
2014,10,31,13,15,8.90
2014,10,31,13,16,9.00
2014,10,31,13,17,9.00
2014,10,31,13,18,9.10
2014,10,31,13,19,9.10
2014,10,31,13,20,9.10
2014,10,31,13,21,9.10
2014,10,31,13,22,9.10
2014,10,31,13,23,9.10
2014,10,31,13,24,9.20
2014,10,31,13,25,9.20
2014,10,31,13,26,9.20
2014,10,31,13,27,9.20
2014,10,31,13,28,9.20
2014,10,31,13,29,9.20
2014,10,31,13,30,9.20
2014,10,31,13,31,9.20
2014,10,31,13,32,9.20
2014,10,31,13,33,9.20
2014,10,31,13,34,9.20
2014,10,31,13,35,9.20
2014,10,31,13,36,9.20
2014,10,31,13,37,9.20
2014,10,31,13,38,9.20
2014,10,31,13,39,9.20
2014,10,31,13,40,9.20
2014,10,31,13,41,9.20
2014,10,31,13,42,9.30
2014,10,31,13,43,9.30
2014,10,31,13,44,9.30
2014,10,31,13,45,9.40
2014,10,31,13,46,9.40
2014,10,31,13,47,9.50
2014,10,31,13,48,9.60
2014,10,31,13,49,9.70
2014,10,31,13,50,9.70
2014,10,31,13,51,9.80
2014,10,31,13,52,9.80
2014,10,31,13,53,9.80
2014,10,31,13,54,9.80
2014,10,31,13,55,9.80
2014,10,31,13,56,9.80
2014,10,31,13,57,9.80
2014,10,31,13,58,9.80
2014,10,31,13,59,9.80
2014,10,31,14,00,9.80
2014,10,31,14,01,9.80
2014,10,31,14,02,9.80
2014,10,31,14,03,9.80
2014,10,31,14,04,9.80
2014,10,31,14,05,9.90
2014,10,31,14,06,9.90
2014,10,31,14,07,9.90
2014,10,31,14,08,10.00
2014,10,31,14,09,10.00
2014,10,31,14,10,10.00
2014,10,31,14,11,10.10
2014,10,31,14,12,10.10
2014,10,31,14,13,10.20
2014,10,31,14,14,10.20
2014,10,31,14,15,10.30
2014,10,31,14,16,10.30
2014,10,31,14,17,10.40
2014,10,31,14,18,10.40
2014,10,31,14,19,10.50
2014,10,31,14,20,10.50
2014,10,31,14,21,10.60
2014,10,31,14,22,10.60
2014,10,31,14,23,10.60
2014,10,31,14,24,10.70
2014,10,31,14,25,10.70
2014,10,31,14,26,10.60
2014,10,31,14,27,10.60
2014,10,31,14,28,10.60
2014,10,31,14,29,10.50
2014,10,31,14,30,10.50
2014,10,31,14,31,10.50
2014,10,31,14,32,10.60
2014,10,31,14,33,10.60
2014,10,31,14,34,10.70
2014,10,31,14,35,10.80
2014,10,31,14,36,10.80
2014,10,31,14,37,10.90
2014,10,31,14,38,10.90
2014,10,31,14,39,11.00
2014,10,31,14,40,11.00
2014,10,31,14,41,11.10
2014,10,31,14,42,11.10
2014,10,31,14,43,11.10
2014,10,31,14,44,11.10
2014,10,31,14,45,11.10
2014,10,31,14,46,11.00
2014,10,31,14,47,11.10
2014,10,31,14,48,11.10
2014,10,31,14,49,11.10
2014,10,31,14,50,11.10
2014,10,31,14,51,11.00
2014,10,31,14,52,11.00
2014,10,31,14,53,11.00
2014,10,31,14,54,10.90
2014,10,31,14,55,10.90
2014,10,31,14,56,10.80
2014,10,31,14,57,10.80
2014,10,31,14,58,10.70
2014,10,31,14,59,10.70
2014,10,31,15,00,10.70
2014,10,31,15,01,10.70
2014,10,31,15,02,10.60
2014,10,31,15,03,10.60
2014,10,31,15,04,10.60
2014,10,31,15,05,10.70
2014,10,31,15,06,10.70
2014,10,31,15,07,10.70
2014,10,31,15,08,10.70
2014,10,31,15,09,10.70
2014,10,31,15,10,10.80
2014,10,31,15,11,10.80
2014,10,31,15,12,10.90
2014,10,31,15,13,10.90
2014,10,31,15,14,10.90
2014,10,31,15,15,10.90
2014,10,31,15,16,10.90
2014,10,31,15,17,10.90
2014,10,31,15,18,10.90
2014,10,31,15,19,10.90
2014,10,31,15,20,10.80
2014,10,31,15,21,10.80
2014,10,31,15,22,10.80
2014,10,31,15,23,10.80
2014,10,31,15,24,10.80
2014,10,31,15,25,10.80
2014,10,31,15,26,10.80
2014,10,31,15,27,10.80
2014,10,31,15,28,10.80
2014,10,31,15,29,10.80
2014,10,31,15,30,10.80
2014,10,31,15,31,10.80
2014,10,31,15,32,10.80
2014,10,31,15,33,10.80
2014,10,31,15,34,10.80
2014,10,31,15,35,10.80
2014,10,31,15,36,10.70
2014,10,31,15,37,10.70
2014,10,31,15,38,10.60
2014,10,31,15,39,10.60
2014,10,31,15,40,10.60
2014,10,31,15,41,10.60
2014,10,31,15,42,10.50
2014,10,31,15,43,10.50
2014,10,31,15,44,10.50
2014,10,31,15,45,10.50
2014,10,31,15,46,10.50
2014,10,31,15,47,10.50
2014,10,31,15,48,10.40
2014,10,31,15,49,10.40
2014,10,31,15,50,10.40
2014,10,31,15,51,10.40
2014,10,31,15,52,10.40
2014,10,31,15,53,10.40
2014,10,31,15,54,10.40
2014,10,31,15,55,10.30
2014,10,31,15,56,10.30
2014,10,31,15,57,10.30
2014,10,31,15,58,10.30
2014,10,31,15,59,10.30
2014,10,31,16,00,10.30
2014,10,31,16,01,10.20
2014,10,31,16,02,10.20
2014,10,31,16,03,10.20
2014,10,31,16,04,10.20
2014,10,31,16,05,10.20
2014,10,31,16,06,10.20
2014,10,31,16,07,10.20
2014,10,31,16,08,10.20
2014,10,31,16,09,10.20
2014,10,31,16,10,10.30
2014,10,31,16,11,10.30
2014,10,31,16,12,10.30
2014,10,31,16,13,10.30
2014,10,31,16,14,10.30
2014,10,31,16,15,10.30
2014,10,31,16,16,10.30
2014,10,31,16,17,10.30
2014,10,31,16,18,10.30
2014,10,31,16,19,10.30
2014,10,31,16,20,10.20
2014,10,31,16,21,10.20
2014,10,31,16,22,10.20
2014,10,31,16,23,10.20
2014,10,31,16,24,10.20
2014,10,31,16,25,10.20
2014,10,31,16,26,10.20
2014,10,31,16,27,10.20
2014,10,31,16,28,10.20
2014,10,31,16,29,10.10
2014,10,31,16,30,10.10
2014,10,31,16,31,10.10
2014,10,31,16,32,10.10
2014,10,31,16,33,10.10
2014,10,31,16,34,10.00
2014,10,31,16,35,10.00
2014,10,31,16,36,10.00
2014,10,31,16,37,10.00
2014,10,31,16,38,9.90
2014,10,31,16,39,9.90
2014,10,31,16,40,9.90
2014,10,31,16,41,9.90
2014,10,31,16,42,9.90
2014,10,31,16,43,9.90
2014,10,31,16,44,9.80
2014,10,31,16,45,9.80
2014,10,31,16,46,9.80
2014,10,31,16,47,9.80
2014,10,31,16,48,9.80
2014,10,31,16,49,9.80
2014,10,31,16,50,9.80
2014,10,31,16,51,9.80
2014,10,31,16,52,9.70
2014,10,31,16,53,9.70
2014,10,31,16,54,9.70
2014,10,31,16,55,9.70
2014,10,31,16,56,9.70
2014,10,31,16,57,9.70
2014,10,31,16,58,9.60
2014,10,31,16,59,9.60
2014,10,31,17,00,9.60
2014,10,31,17,01,9.60
2014,10,31,17,02,9.60
2014,10,31,17,03,9.60
2014,10,31,17,04,9.60
2014,10,31,17,05,9.60
2014,10,31,17,06,9.50
2014,10,31,17,07,9.50
2014,10,31,17,08,9.50
2014,10,31,17,09,9.40
2014,10,31,17,10,9.40
2014,10,31,17,11,9.40
2014,10,31,17,12,9.30
2014,10,31,17,13,9.30
2014,10,31,17,14,9.30
2014,10,31,17,15,9.30
2014,10,31,17,16,9.30
2014,10,31,17,17,9.30
2014,10,31,17,18,9.20
2014,10,31,17,19,9.20
2014,10,31,17,20,9.20
2014,10,31,17,21,9.20
2014,10,31,17,22,9.10
2014,10,31,17,23,9.10
2014,10,31,17,24,9.10
2014,10,31,17,25,9.00
2014,10,31,17,26,9.00
2014,10,31,17,27,8.90
2014,10,31,17,28,8.90
2014,10,31,17,29,8.90
2014,10,31,17,30,8.90
2014,10,31,17,31,8.80
2014,10,31,17,32,8.80
2014,10,31,17,33,8.80
2014,10,31,17,34,8.80
2014,10,31,17,35,8.80
2014,10,31,17,36,8.80
2014,10,31,17,37,8.80
2014,10,31,17,38,8.70
2014,10,31,17,39,8.70
2014,10,31,17,40,8.70
2014,10,31,17,41,8.70
2014,10,31,17,42,8.70
2014,10,31,17,43,8.70
2014,10,31,17,44,8.70
2014,10,31,17,45,8.70
2014,10,31,17,46,8.70
2014,10,31,17,47,8.70
2014,10,31,17,48,8.70
2014,10,31,17,49,8.70
2014,10,31,17,50,8.70
2014,10,31,17,51,8.70
2014,10,31,17,52,8.70
2014,10,31,17,53,8.70
2014,10,31,17,54,8.70
2014,10,31,17,55,8.70
2014,10,31,17,56,8.70
2014,10,31,17,57,8.70
2014,10,31,17,58,8.70
2014,10,31,17,59,8.70